Location: Hungerford
(51.4167°N, 1.5167°W)
Time: 08:22:41
(UTC+00:00)

Cosmos 1048 Rocket - Pass Details

Date: 22 January 2021
Orbit: 744 x 791 km, 74.0° (Epoch: 24 February)

Event Time Altitude Azimuth Distance (km) Brightness Sun altitude
Rises 18:57:22 0° 339° (NNW) 3,198 7.4 -21.2°
Reaches altitude 10° 19:00:01 10° 350° (N) 2,270 6.5 -21.6°
Enters shadow 19:03:03 26° 22° (NNE) 1,455 5.2 -22.1°
